TimeCDT,TemperatureF,Dew PointF,Humidity,Sea Level PressureIn,VisibilityMPH,Wind Direction,Wind SpeedMPH,Gust SpeedMPH,PrecipitationIn,Events,Conditions,WindDirDegrees,DateUTC
12:15 AM,43.2,39.9,88,29.43,10.0,West,16.1,24.2,N/A,,Mostly Cloudy,270,2013-11-01 05:15:00
12:35 AM,42.4,38.8,87,29.44,10.0,West,17.3,24.2,N/A,,Mostly Cloudy,260,2013-11-01 05:35:00
12:55 AM,42.8,38.5,85,29.45,10.0,West,18.4,24.2,N/A,,Overcast,260,2013-11-01 05:55:00
1:15 AM,42.8,38.7,85,29.46,10.0,West,11.5,25.3,N/A,,Overcast,260,2013-11-01 06:15:00
1:35 AM,42.8,38.3,84,29.46,10.0,West,17.3,26.5,N/A,,Overcast,260,2013-11-01 06:35:00
1:55 AM,42.3,37.4,83,29.46,10.0,West,17.3,26.5,0.02,,Overcast,260,2013-11-01 06:55:00
2:15 AM,41.2,37.4,86,29.47,10.0,WSW,12.7,19.6,N/A,,Scattered Clouds,250,2013-11-01 07:15:00
2:35 AM,41.0,37.8,88,29.47,10.0,WSW,13.8,-,N/A,,Clear,250,2013-11-01 07:35:00
2:55 AM,40.6,38.1,91,29.47,7.0,WSW,10.4,17.3,N/A,,Scattered Clouds,250,2013-11-01 07:55:00
3:15 AM,40.8,38.1,90,29.47,10.0,West,10.4,16.1,N/A,,Scattered Clouds,260,2013-11-01 08:15:00
3:35 AM,41.4,38.5,89,29.47,10.0,West,11.5,17.3,N/A,,Mostly Cloudy,260,2013-11-01 08:35:00
3:55 AM,42.1,38.7,88,29.47,10.0,WSW,8.1,-,N/A,,Overcast,250,2013-11-01 08:55:00
4:15 AM,42.3,38.7,87,29.48,10.0,West,11.5,-,N/A,,Overcast,260,2013-11-01 09:15:00
4:35 AM,42.8,39.0,86,29.49,10.0,West,10.4,16.1,N/A,,Overcast,260,2013-11-01 09:35:00
4:55 AM,42.8,39.2,87,29.49,10.0,WSW,10.4,-,N/A,,Overcast,250,2013-11-01 09:55:00
5:15 AM,43.0,39.2,86,29.50,7.0,West,11.5,-,N/A,,Overcast,260,2013-11-01 10:15:00
5:35 AM,43.2,38.8,85,29.51,7.0,West,10.4,16.1,N/A,,Overcast,260,2013-11-01 10:35:00
5:55 AM,43.3,38.1,82,29.52,10.0,West,13.8,18.4,N/A,,Overcast,270,2013-11-01 10:55:00
6:15 AM,43.5,38.3,82,29.52,10.0,WSW,12.7,-,N/A,,Overcast,250,2013-11-01 11:15:00
6:35 AM,43.3,38.8,84,29.54,10.0,West,10.4,-,N/A,,Overcast,260,2013-11-01 11:35:00
6:55 AM,43.3,38.7,84,29.54,10.0,WSW,12.7,-,N/A,,Overcast,250,2013-11-01 11:55:00
7:15 AM,43.2,38.7,84,29.54,10.0,WSW,9.2,-,N/A,,Overcast,250,2013-11-01 12:15:00
7:35 AM,43.0,39.2,86,29.55,10.0,WSW,9.2,-,N/A,,Overcast,250,2013-11-01 12:35:00
7:55 AM,43.2,39.7,88,29.56,10.0,West,9.2,-,N/A,,Overcast,260,2013-11-01 12:55:00
8:15 AM,43.5,39.6,86,29.56,10.0,WSW,10.4,-,N/A,,Overcast,250,2013-11-01 13:15:00
8:35 AM,43.9,39.4,84,29.57,10.0,West,11.5,18.4,N/A,,Overcast,270,2013-11-01 13:35:00
8:55 AM,44.1,39.4,84,29.58,10.0,West,11.5,-,N/A,,Overcast,270,2013-11-01 13:55:00
9:15 AM,43.9,39.0,83,29.59,10.0,West,13.8,19.6,N/A,,Overcast,270,2013-11-01 14:15:00
9:35 AM,44.1,39.2,83,29.58,10.0,West,11.5,-,N/A,,Overcast,270,2013-11-01 14:35:00
9:55 AM,44.4,39.4,82,29.59,10.0,West,10.4,17.3,N/A,,Overcast,270,2013-11-01 14:55:00
10:15 AM,44.2,39.4,83,29.59,10.0,West,11.5,17.3,N/A,,Overcast,280,2013-11-01 15:15:00
10:35 AM,44.6,39.4,82,29.60,10.0,West,11.5,-,N/A,,Overcast,270,2013-11-01 15:35:00
10:55 AM,45.0,39.7,82,29.60,10.0,West,10.4,-,N/A,,Overcast,280,2013-11-01 15:55:00
11:15 AM,45.1,39.9,82,29.61,10.0,West,9.2,-,N/A,,Overcast,270,2013-11-01 16:15:00
11:35 AM,45.5,40.1,81,29.61,10.0,West,11.5,-,N/A,,Overcast,260,2013-11-01 16:35:00
11:55 AM,45.7,40.1,81,29.61,10.0,West,12.7,-,N/A,,Overcast,270,2013-11-01 16:55:00
12:15 PM,45.9,40.3,81,29.61,10.0,West,10.4,16.1,N/A,,Overcast,260,2013-11-01 17:15:00
12:35 PM,46.0,40.3,80,29.62,10.0,West,12.7,-,N/A,,Overcast,270,2013-11-01 17:35:00
12:55 PM,46.4,40.6,80,29.62,10.0,West,12.7,-,N/A,,Overcast,270,2013-11-01 17:55:00
1:15 PM,45.9,40.1,80,29.62,10.0,West,12.7,-,N/A,,Overcast,270,2013-11-01 18:15:00
1:35 PM,46.0,40.3,80,29.62,10.0,West,10.4,17.3,N/A,,Overcast,270,2013-11-01 18:35:00
1:55 PM,45.7,40.3,81,29.63,10.0,West,15.0,-,N/A,,Overcast,270,2013-11-01 18:55:00
2:15 PM,45.7,40.3,81,29.63,10.0,West,13.8,-,N/A,,Overcast,270,2013-11-01 19:15:00
2:35 PM,45.9,40.3,81,29.64,10.0,West,11.5,-,N/A,,Overcast,270,2013-11-01 19:35:00
2:55 PM,46.0,40.5,81,29.64,10.0,West,12.7,-,N/A,,Overcast,270,2013-11-01 19:55:00
3:15 PM,46.4,40.6,80,29.65,10.0,West,12.7,16.1,N/A,,Overcast,270,2013-11-01 20:15:00
4:55 PM,45.5,42.8,90,-9999,7.0,West,6.9,-,N/A,,Drizzle,270,2013-11-01 21:55:00
5:15 PM,45.5,42.8,90,29.68,5.0,West,9.2,-,N/A,Rain,Rain,270,2013-11-01 22:15:00
5:35 PM,45.3,43.0,92,29.69,7.0,West,5.8,-,N/A,,Drizzle,260,2013-11-01 22:35:00
5:55 PM,45.1,43.0,92,29.69,7.0,West,8.1,-,N/A,,Drizzle,270,2013-11-01 22:55:00
6:15 PM,45.1,43.0,92,29.70,7.0,West,8.1,-,N/A,Rain,Rain,270,2013-11-01 23:15:00
6:35 PM,45.0,43.0,93,29.71,7.0,WSW,6.9,-,N/A,Rain,Light Rain,250,2013-11-01 23:35:00
6:55 PM,45.0,43.2,93,29.72,7.0,WSW,5.8,-,N/A,,Light Drizzle,250,2013-11-01 23:55:00
7:15 PM,45.1,43.0,92,29.72,7.0,West,9.2,-,N/A,,Overcast,270,2013-11-02 00:15:00
7:35 PM,45.1,42.8,91,29.72,7.0,West,8.1,-,N/A,,Overcast,270,2013-11-02 00:35:00
7:55 PM,44.8,42.4,91,29.73,7.0,West,6.9,-,N/A,,Overcast,270,2013-11-02 00:55:00
8:15 PM,44.6,41.9,90,29.73,7.0,West,8.1,-,N/A,,Overcast,270,2013-11-02 01:15:00
8:35 PM,43.7,41.2,91,29.73,7.0,West,6.9,-,N/A,,Mostly Cloudy,270,2013-11-02 01:35:00
8:55 PM,43.2,41.0,92,29.73,7.0,West,5.8,-,N/A,,Mostly Cloudy,270,2013-11-02 01:55:00
9:15 PM,42.4,40.3,92,29.74,7.0,West,4.6,-,N/A,,Scattered Clouds,270,2013-11-02 02:15:00
9:35 PM,42.3,40.1,92,29.74,7.0,West,5.8,-,N/A,,Clear,270,2013-11-02 02:35:00
9:55 PM,42.1,40.1,93,29.74,7.0,West,5.8,-,N/A,,Scattered Clouds,260,2013-11-02 02:55:00
10:15 PM,41.0,39.2,93,29.75,5.0,WSW,5.8,-,N/A,,Scattered Clouds,250,2013-11-02 03:15:00
10:35 PM,39.7,38.3,95,29.76,5.0,WSW,5.8,-,N/A,,Mostly Cloudy,250,2013-11-02 03:35:00
10:55 PM,38.7,37.4,95,29.76,4.0,West,5.8,-,N/A,,Overcast,260,2013-11-02 03:55:00
11:15 PM,39.2,38.3,97,29.76,4.0,West,6.9,-,N/A,,Overcast,280,2013-11-02 04:15:00
11:35 PM,38.5,37.4,96,29.76,4.0,West,5.8,-,N/A,,Overcast,280,2013-11-02 04:35:00
11:55 PM,39.2,37.9,95,29.76,4.0,West,4.6,-,N/A,,Mostly Cloudy,280,2013-11-02 04:55:00